Regional Weather Roundup
Issued by NWS

Home | Current Version | Previous Version | Graphics & Text | Print | Product List | Glossary On
Versions: 1 2 3 4 5 6 7 8 9 10 11 12 13 14 15 16 17 18 19 20 21 22 23 24 25 26 27 28 29 30 31 32 33 34 35 36 37 38 39 40 41 42 43 44 45 46 47 48 49 50
000
ASUS43 KOAX 261310
RWRNE

WEATHER ROUNDUP FOR NEBRASKA
NATIONAL WEATHER SERVICE OMAHA NE
700 AM CST SUN FEB 26 2017

NOTES: SATELLITE DATA IS BEING USED TO AUGMENT CLOUD COVER ABOVE
       12000 FEET.
       "FAIR" INDICATES FEW OR NO CLOUDS BELOW 12,000 FEET WITH NO
       SIGNIFICANT WEATHER AND/OR OBSTRUCTIONS TO VISIBILITY.

  * THESE STATIONS DO NOT REPORT WEATHER SUCH AS RAIN...SNOW OR FOG.

NEZ001>004-019>022-054>056-261400-
NEBRASKA PANHANDLE

CITY           SKY/WX    TMP DP  RH WIND       PRES   REMARKS
SCOTTSBLUFF    CLOUDY     4  -1  80 NW9       29.83R WCI -10
ALLIANCE       CLOUDY    -2  -7  79 W6        29.79R WCI -14
CHADRON        CLEAR      4  -3  73 W8        29.82R WCI  -9
KIMBALL        CLEAR      8   1  73 W10       29.80S WCI  -6
SIDNEY         CLEAR     15   4  61 NW13      29.82S WCI   1
$$

NEZ057>060-069>072-079>082-261400-
SOUTHWEST NEBRASKA

CITY           SKY/WX    TMP DP  RH WIND       PRES   REMARKS
NORTH PLATTE   CLEAR     11   6  81 W7        29.87R WCI   0
IMPERIAL       CLEAR     22   8  55 NW10      29.87S WCI  11
LEXINGTON      CLEAR     20  13  73 W8        29.88S WCI  11
MCCOOK         CLEAR     17  13  84 SW9       29.90S WCI   6
OGALLALA       CLEAR     17   8  67 CALM      29.85S
$$

NEZ005>010-023>029-035>040-094-261400-
NORTH CENTRAL NEBRASKA

CITY           SKY/WX    TMP DP  RH WIND       PRES   REMARKS
VALENTINE      CLEAR      5  -1  76 SW10      29.81R WCI -10
AINSWORTH      CLEAR     12   7  82 W10       29.81R WCI  -2
BROKEN BOW     CLEAR     22  10  60 W13       29.83S WCI  10
O`NEILL        CLEAR     17  10  72 W8        29.81S WCI   6
ORD            CLEAR     20   9  62 W9        29.83S WCI   9
THEDFORD       CLEAR     15   7  71 W13       29.82S WCI   1
$$

NEZ041-046>049-061>064-073>077-083>087-261400-
SOUTH CENTRAL NEBRASKA

CITY           SKY/WX    TMP DP  RH WIND       PRES   REMARKS
GRAND ISLAND   CLEAR     25  17  72 W12       29.88R WCI  14
AURORA         PTCLDY    26  17  68 W10       29.88R WCI  16
HASTINGS       CLEAR     25  16  68 W13       29.90R WCI  14
HEBRON         PTCLDY    33  21  62 S9        29.91S WCI  25
HOLDREGE       CLEAR     26  13  56 W8        29.89R WCI  18
KEARNEY *      CLEAR     28  12  50 W12       29.88S WCI  18
YORK           PTCLDY    25  18  74 W10       29.89R WCI  15
$$

NEZ011>018-030>034-042>045-261400-
NORTHEAST NEBRASKA

CITY           SKY/WX    TMP DP  RH WIND       PRES   REMARKS
NORFOLK        CLEAR     19   9  65 W9        29.83R WCI   8
ALBION         CLEAR     19   9  65 NW5       29.85R WCI  12
BLAIR          CLEAR     26  20  76 SW10      29.86R WCI  16
FREMONT        CLEAR     29  19  68 W12       29.86S WCI  19
TEKAMAH        CLEAR     20  14  77 SW12      29.86S WCI   8
WAYNE          CLEAR     17  11  77 W5        29.84R WCI  10
$$

NEZ050>053-065>068-078-088>093-261400-
SOUTHEAST NEBRASKA

CITY           SKY/WX    TMP DP  RH WIND       PRES   REMARKS
LINCOLN        CLEAR     30  21  69 W7        29.91R WCI  23
OMAHA EPPLEY   PTCLDY    32  21  64 SW9       29.88R WCI  24
BEATRICE       CLEAR     32  21  63 SW10G16   29.91S WCI  24
FALLS CITY     CLOUDY    32  20  61 S12       29.96R WCI  23
NEBRASKA CITY  PTCLDY    30  19  62 SW9       29.90F WCI  21
PLATTSMOUTH    PTCLDY    31  20  64 SW10      29.89R WCI  22
$$

NEZ044-045-051>053-067-261400-
OMAHA AREA

CITY           SKY/WX    TMP DP  RH WIND       PRES   REMARKS
OMAHA EPPLEY   PTCLDY    32  21  64 SW9       29.88R WCI  24
BLAIR          CLEAR     26  20  76 SW10      29.86R WCI  16
FREMONT        CLEAR     29  19  68 W12       29.86S WCI  19
MILLARD        PTCLDY    32  24  70 SW3       29.89R
OFFUTT AFB     PTCLDY    26  19  74 S7        29.89R WCI  18
PLATTSMOUTH    PTCLDY    31  20  64 SW10      29.89R WCI  22
WAHOO          FAIR      26  19  76 SW8       29.88R WCI  17
$$




USA.gov is the U.S. government's official web portal to all federal, state and local government web resources and services.